Theta_e
315 318 320 322 323 324 325 326 326 327 327 327 327 326 326 325 325 323 322 321 320 319 317 315 313 311 308 306 305 301 296 292 291 292 292 293 292 292 292 291 291 290 289 289 289 289 289 289 289 289 288 288 288 288 288 288 288 287 286 286 286 285 285 286 286 286 287 287 287 286 286 286 286 286 285 285 285 285 284 284 284 284 284 283 283
316 318 320 321 322 323 325 325 325 326 326 325 325 325 324 324 323 322 321 320 318 317 315 312 310 308 305 302 298 294 292 291 292 292 292 293 292 291 291 290 290 289 289 289 289 289 289 289 289 289 288 288 288 288 288 287 287 287 286 286 285 285 285 285 285 285 286 286 286 286 285 285 285 285 284 284 285 284 284 284 283 283 283 283 283
316 318 320 321 322 323 324 324 324 324 323 323 323 323 323 322 321 320 319 318 316 314 312 309 307 304 301 297 293 291 291 292 292 292 292 292 291 290 290 289 289 289 289 289 289 288 289 289 289 288 288 288 288 288 288 287 287 287 286 285 285 284 284 284 284 284 284 285 285 285 284 284 284 284 284 284 284 284 283 283 283 283 283 283 283
317 318 320 320 321 322 322 322 322 322 322 321 322 321 321 320 319 318 317 316 313 310 308 306 304 300 295 292 291 291 292 292 291 291 291 291 290 290 289 289 289 289 289 289 289 288 288 288 289 288 288 288 288 287 287 287 286 286 285 285 284 284 283 283 283 284 283 284 284 284 283 283 284 283 283 283 283 283 283 283 282 283 283 283 283
316 318 319 320 320 320 321 321 320 320 320 320 320 319 318 318 317 316 315 312 309 307 305 302 299 294 292 291 291 291 291 292 291 291 290 290 290 290 289 289 289 289 289 288 288 288 288 288 288 288 288 288 287 287 287 286 286 286 285 284 284 283 283 283 283 283 283 283 283 283 283 283 283 283 283 283 283 283 282 282 282 282 282 282 282
316 317 318 318 318 318 318 318 318 318 318 317 317 317 316 316 315 314 312 308 306 304 301 296 293 291 291 291 291 291 291 291 291 290 290 290 289 289 289 289 288 288 288 288 288 288 288 288 288 287 288 287 287 287 286 286 286 285 284 283 283 282 282 282 282 282 283 283 282 283 283 282 282 282 283 283 282 282 282 282 282 282 282 282 282
315 316 317 317 317 317 316 316 316 316 316 316 316 315 314 314 313 310 308 305 303 299 295 292 291 291 291 291 291 291 291 290 290 290 290 289 289 289 288 288 288 288 288 288 288 288 288 288 287 287 287 287 287 286 286 285 284 284 283 282 282 282 282 282 282 282 282 282 282 282 282 282 282 282 282 282 282 282 282 282 282 282 282 282 282
315 315 316 315 315 315 315 315 315 315 315 315 314 314 312 311 310 306 304 301 297 293 291 291 291 290 291 291 291 290 290 290 290 289 289 289 288 288 288 288 288 288 288 288 288 288 287 287 287 287 287 287 286 285 285 284 283 282 282 282 281 281 281 281 281 282 282 282 282 282 282 282 282 282 282 282 282 282 282 282 282 282 282 282 282
314 314 314 314 314 314 314 314 314 314 314 314 313 312 310 308 305 302 299 295 292 291 290 291 290 290 290 290 290 289 289 289 289 289 289 288 288 288 288 288 288 288 288 287 287 287 287 287 287 287 286 286 286 285 284 283 282 282 281 281 281 281 281 281 281 281 282 282 282 282 282 282 282 282 282 282 282 282 282 282 282 282 282 282 281
313 312 313 313 313 313 314 313 312 312 312 311 310 308 306 303 300 297 294 291 291 290 290 290 290 290 290 289 289 289 289 289 289 288 288 288 288 288 288 288 288 288 287 287 287 287 287 287 286 286 286 286 285 284 283 282 281 281 281 281 281 281 281 281 281 281 282 282 282 282 282 282 282 282 282 282 282 282 282 282 282 282 282 282 282
310 310 310 310 311 311 311 311 311 310 309 308 307 305 302 299 295 293 291 290 290 290 290 290 289 290 289 289 289 288 288 288 288 288 288 288 288 288 288 288 287 287 287 287 287 286 286 286 286 286 286 285 285 284 282 282 281 280 281 281 281 281 281 281 281 281 282 282 281 281 281 281 281 281 281 281 281 281 281 281 281 281 282 282 282
308 308 308 309 309 309 309 309 308 307 306 305 303 301 298 295 292 291 290 290 289 289 289 289 289 289 289 289 288 288 288 288 288 288 288 288 288 287 287 287 287 287 287 286 286 286 286 286 286 286 285 285 284 283 282 281 280 280 281 281 281 281 281 281 281 281 281 281 281 281 281 280 280 280 281 281 281 281 281 281 281 281 281 281 281
307 307 307 307 308 308 307 307 306 305 303 301 299 297 294 292 291 290 290 290 289 289 288 288 288 288 288 288 288 288 288 287 287 288 287 287 287 287 287 287 287 286 286 286 286 286 286 286 286 285 285 284 284 283 282 281 280 281 281 281 280 280 280 280 280 280 280 280 280 280 280 280 280 280 280 280 281 281 281 281 281 280 280 281 281
306 306 306 307 307 307 306 305 304 302 300 298 296 293 292 290 290 290 289 289 288 288 288 288 288 288 288 288 288 287 287 287 287 287 287 287 287 287 287 287 286 286 286 286 286 286 286 285 285 285 284 284 283 282 281 281 281 281 280 279 279 279 279 279 279 279 279 279 279 279 279 280 280 280 280 280 280 280 280 280 280 280 280 280 280
304 304 305 305 305 305 304 303 302 299 297 295 293 291 290 290 289 289 289 288 288 288 288 288 288 287 287 287 287 287 287 287 287 287 287 287 286 286 286 286 286 286 286 286 286 285 285 285 284 284 284 283 282 281 281 281 281 280 279 278 278 278 278 278 278 278 278 278 279 279 279 280 280 280 280 280 280 279 279 279 279 279 279 280 280
303 303 303 304 304 303 302 301 299 297 294 292 291 290 289 289 289 289 288 288 287 287 287 288 287 287 287 286 287 287 286 286 286 286 286 286 286 286 286 286 286 286 286 285 285 285 284 284 284 283 282 282 281 281 281 281 280 279 278 278 278 277 277 278 278 278 278 279 279 279 279 279 279 279 279 279 278 278 278 278 279 279 279 279 280
302 302 302 303 303 302 301 299 297 295 292 290 290 289 289 289 288 288 288 287 287 287 287 287 287 287 286 286 287 287 286 286 286 286 286 286 286 286 286 285 285 285 285 285 285 284 284 283 283 282 281 281 281 281 281 281 279 278 278 278 277 277 277 278 278 278 278 278 278 278 278 277 277 277 277 277 277 278 278 278 278 278 279 279 279
301 301 301 301 301 299 298 297 295 293 290 289 289 288 288 288 288 287 287 287 287 287 287 286 286 286 286 286 286 287 286 286 285 285 286 285 285 285 285 285 285 285 285 285 284 284 283 282 282 281 280 280 280 280 281 280 279 278 278 277 277 277 277 278 278 277 277 277 276 276 275 275 275 275 276 276 277 277 277 277 277 278 278 279 279
300 299 298 298 298 297 296 294 293 291 289 288 288 288 288 288 287 287 287 287 287 286 286 286 286 285 285 286 286 286 286 285 285 285 285 285 285 285 285 284 284 284 284 284 284 283 282 282 281 281 280 279 280 280 279 279 278 277 277 276 276 277 278 277 277 276 276 276 275 274 274 274 274 275 275 275 275 276 276 276 277 277 278 278 279
298 297 297 297 296 295 294 292 291 289 288 288 288 288 288 287 287 286 286 287 287 286 286 286 285 285 285 285 285 285 285 285 285 284 285 285 285 285 284 284 284 284 284 284 283 283 282 281 281 281 280 279 279 278 277 277 277 277 276 276 277 277 277 276 276 275 275 274 274 273 273 273 274 274 274 274 275 275 275 276 276 277 278 278 279
296 296 296 295 295 294 293 291 290 289 288 288 288 287 287 287 287 286 286 286 286 285 285 285 285 285 284 285 285 285 285 285 285 284 284 284 284 284 284 284 284 284 284 283 282 281 281 281 280 280 279 278 278 278 278 278 277 276 276 276 277 276 275 276 277 276 274 273 272 272 273 273 273 273 274 274 274 275 275 276 276 277 277 278 278
295 295 294 293 293 292 291 290 289 288 288 287 287 287 286 286 286 286 286 286 285 285 285 284 285 284 284 284 284 284 284 284 284 284 284 284 284 284 283 283 283 283 283 282 281 280 280 279 279 278 278 278 278 278 278 278 277 275 275 275 275 275 275 276 276 274 273 272 272 272 272 272 272 273 273 274 274 274 275 275 276 276 277 278 278
294 293 292 292 291 290 289 288 287 287 287 287 286 286 286 285 285 286 286 286 285 285 284 284 284 284 283 283 283 284 284 284 284 284 284 283 283 283 283 283 283 282 282 281 280 279 278 277 277 277 277 278 278 278 278 276 275 274 274 274 274 275 275 275 273 272 271 271 271 271 271 271 272 272 273 273 274 274 275 275 276 276 277 277 278
293 292 291 291 290 289 288 287 287 287 286 286 286 285 285 285 285 285 285 285 285 285 284 284 284 284 283 283 283 283 283 283 283 284 284 283 283 283 283 282 282 282 281 280 279 278 277 276 277 277 277 278 278 277 276 275 274 274 274 274 274 275 274 272 271 270 270 270 270 270 270 271 271 272 272 273 273 274 274 275 275 276 276 276 276
292 291 290 290 289 288 287 287 286 286 286 286 286 285 286 285 285 285 285 285 285 285 284 284 284 284 284 284 283 283 283 283 283 283 283 283 282 282 282 282 282 281 281 280 279 278 277 277 277 278 277 277 277 275 275 274 274 273 273 273 273 273 272 270 270 269 269 269 269 269 270 270 271 271 272 273 273 274 274 275 275 276 276 275 275
291 291 290 289 288 287 287 286 286 286 285 285 285 286 286 286 285 285 284 284 284 285 284 284 284 284 285 284 284 284 283 283 283 283 283 283 282 282 282 282 281 281 280 280 279 279 278 278 278 277 277 276 275 274 273 273 273 273 273 273 272 271 270 269 269 268 268 268 269 269 269 270 271 271 272 272 273 274 274 275 275 275 275 274 274
291 290 289 288 287 286 286 285 285 285 284 284 284 285 285 286 285 285 284 284 284 284 284 284 284 284 284 284 284 284 283 282 282 282 283 283 282 282 282 282 281 281 280 280 280 279 278 277 277 277 276 275 274 273 273 273 273 273 273 272 270 269 269 269 268 268 268 268 268 269 269 270 270 271 271 272 273 273 274 275 275 275 274 273 273
290 289 288 287 286 286 285 285 284 284 284 284 284 284 284 285 285 285 285 285 285 284 284 285 285 285 285 285 284 283 282 282 283 283 283 282 282 282 282 282 281 280 280 280 279 278 277 276 276 276 276 275 275 274 274 274 274 273 272 271 270 270 269 268 268 268 268 268 268 268 269 269 270 270 271 272 273 273 274 275 274 274 273 272 272
289 288 287 286 285 285 284 284 284 283 283 283 283 283 284 284 284 285 285 285 285 285 286 286 286 287 287 287 286 284 283 284 284 283 282 282 282 282 282 281 281 280 279 279 278 277 276 276 276 275 275 275 275 275 274 274 274 274 273 271 271 270 269 268 268 268 268 268 268 268 268 269 269 270 271 272 272 273 274 274 273 272 272 271 271
287 286 286 285 284 284 283 283 282 282 282 282 282 282 282 283 283 284 284 284 284 285 285 286 286 288 288 288 287 286 286 285 283 282 281 281 281 281 281 281 280 279 278 278 277 276 275 275 275 275 275 275 275 275 274 273 273 273 273 272 271 269 269 268 267 267 268 268 268 268 268 268 269 270 270 271 272 273 274 273 272 271 271 270 270
286 285 284 284 284 283 282 282 281 281 281 281 281 281 281 281 281 282 283 283 283 284 284 285 286 287 288 288 287 285 284 283 282 282 281 281 280 280 280 279 279 279 278 277 276 275 275 275 275 275 275 275 274 273 273 272 271 271 272 272 270 269 268 268 268 267 267 268 267 267 268 268 268 269 270 271 272 273 273 272 271 271 270 270 269
287 285 284 284 283 282 282 281 281 280 280 280 280 280 280 280 280 280 281 281 282 282 283 284 285 286 286 287 286 284 282 281 282 282 281 281 280 280 279 278 278 278 277 276 275 275 275 276 275 275 274 274 274 273 272 272 271 270 270 270 270 269 268 268 268 268 267 267 267 267 267 267 268 269 270 271 272 273 272 271 271 270 270 269 269
287 286 285 283 282 281 281 280 280 280 279 279 279 279 279 279 279 279 279 280 280 281 282 282 283 284 284 284 283 282 282 282 281 281 281 280 280 279 278 277 277 277 277 276 275 275 275 275 275 274 274 274 273 273 272 272 271 270 269 268 268 269 268 268 268 268 267 267 267 267 267 267 267 268 269 270 272 272 272 271 270 270 269 269 269
287 286 285 284 282 281 280 280 279 279 279 279 278 279 279 280 280 279 279 279 279 279 280 280 281 281 282 281 281 281 281 281 280 280 280 279 279 278 276 275 276 276 276 275 275 275 275 275 274 274 273 273 272 272 272 272 271 270 270 269 269 270 270 270 269 268 267 266 266 266 267 267 267 267 268 270 271 272 271 270 270 269 269 268 268
285 284 284 283 282 281 280 280 279 279 278 278 278 278 279 279 279 279 279 279 279 279 279 279 279 279 280 280 279 279 279 279 278 278 278 278 278 276 274 274 275 276 275 275 274 275 275 274 274 274 273 272 272 272 272 272 271 270 270 269 270 270 270 269 268 267 266 266 266 266 266 267 267 267 268 269 271 271 271 270 269 268 268 267 267
284 283 283 282 281 281 280 279 279 279 278 278 278 278 278 279 279 279 279 279 279 279 278 278 278 278 278 278 278 277 277 277 276 276 276 276 276 275 274 275 276 275 275 275 274 275 274 274 274 273 272 272 272 272 272 271 271 271 270 269 269 270 269 268 266 266 266 266 266 266 267 267 267 267 268 269 270 271 270 269 269 268 267 267 267
283 283 282 281 281 280 280 279 279 278 278 278 277 277 278 278 278 278 279 279 279 278 277 277 277 276 276 276 276 276 276 275 275 274 274 274 274 274 275 275 275 275 275 274 274 274 274 274 273 273 272 272 272 271 271 271 271 271 270 270 270 269 268 266 265 265 265 265 266 266 267 267 267 267 268 269 270 270 270 269 268 268 267 267 267
282 282 281 281 280 279 279 278 278 278 277 277 277 277 277 277 277 277 278 278 278 277 276 276 276 276 275 275 274 274 274 274 274 273 272 273 274 274 275 275 274 274 274 274 274 274 273 273 273 272 272 271 271 271 271 271 270 270 270 271 271 270 268 265 265 264 264 265 266 266 266 267 267 267 267 268 269 270 269 269 268 268 267 267 267
281 280 280 279 279 278 278 278 277 277 277 277 276 276 276 276 276 276 277 277 276 276 275 275 275 275 275 275 274 274 274 273 273 272 272 272 274 274 274 274 274 274 274 274 274 274 273 273 273 272 271 271 270 270 270 270 270 270 270 271 272 271 268 266 265 264 264 265 266 266 266 266 266 267 267 268 269 269 269 269 268 268 267 267 267
281 280 279 278 278 278 277 277 277 277 276 276 276 275 275 275 275 276 276 275 275 275 275 274 274 274 275 274 274 274 274 273 272 272 272 273 274 274 274 274 274 274 274 273 274 274 273 273 272 272 271 270 270 270 270 269 269 269 269 270 270 270 268 266 264 263 264 264 265 266 267 267 266 266 266 267 268 268 268 269 269 268 267 267 267
280 279 278 277 277 277 276 276 276 276 276 276 275 275 275 275 275 275 275 275 275 274 274 274 274 274 274 274 274 275 274 273 273 273 273 274 274 275 274 274 274 274 273 273 273 273 273 272 272 272 271 270 270 270 269 269 269 269 269 269 269 269 268 266 264 263 263 264 265 267 267 267 266 265 266 267 268 268 268 269 269 268 268 267 267
278 278 277 277 276 276 275 275 275 275 275 275 274 274 274 274 274 274 274 274 274 274 273 273 273 273 273 273 274 274 274 274 274 274 274 274 275 275 274 274 274 273 273 273 273 272 272 272 272 271 271 270 270 269 269 268 268 268 269 269 269 268 268 267 265 263 264 265 266 267 267 267 267 266 266 266 267 267 268 268 269 269 268 267 267
277 277 276 275 275 274 274 274 274 274 274 274 273 273 273 273 273 273 273 273 273 273 273 273 272 272 272 273 272 272 273 273 273 274 274 274 274 274 274 273 273 273 272 272 272 272 272 271 271 271 271 270 269 269 268 268 268 268 268 268 268 268 267 266 264 263 263 265 266 267 267 267 267 266 266 266 266 267 267 268 268 268 268 267 267
276 275 275 274 274 273 273 273 273 273 273 273 273 273 273 272 272 273 272 272 273 273 273 273 272 272 272 272 271 271 272 272 273 273 274 274 274 274 273 273 273 272 272 272 271 271 271 271 271 270 270 269 269 268 268 267 267 267 267 267 268 268 267 265 263 262 262 263 264 266 266 267 267 267 267 266 266 266 267 267 268 268 268 267 267
275 274 274 273 272 272 272 272 272 272 272 272 272 272 272 272 272 272 272 272 272 272 272 272 272 272 272 272 271 271 271 272 273 273 273 274 274 273 273 272 272 271 271 271 271 270 270 270 270 269 269 268 268 267 267 267 267 266 266 266 267 267 267 265 263 262 262 262 263 264 265 266 267 267 267 267 266 266 266 267 268 268 268 267 267
274 273 273 272 272 271 271 271 271 271 271 271 271 271 271 271 271 271 271 271 271 272 272 271 271 272 272 272 272 272 272 272 273 274 274 274 273 273 272 272 271 271 271 270 269 269 269 269 269 269 268 268 267 267 266 266 266 266 266 266 266 266 266 265 263 262 261 262 262 263 264 265 266 266 267 267 267 267 267 267 267 267 267 267 267
273 272 272 271 271 271 270 271 271 271 271 271 271 271 271 271 271 271 271 271 271 271 271 271 271 271 272 272 272 272 272 273 274 275 275 274 273 272 272 271 270 270 270 269 268 268 268 268 268 268 268 268 267 267 266 266 266 265 265 265 265 266 265 264 263 262 261 261 262 262 263 265 266 266 267 267 267 267 268 267 267 267 267 267 267
272 271 271 271 270 270 270 270 270 270 270 270 270 270 270 270 270 270 270 270 270 270 270 270 270 270 270 271 272 272 273 274 274 275 274 273 272 272 271 270 269 269 269 268 268 267 267 267 267 267 267 267 267 267 266 266 266 265 265 265 265 265 265 264 263 263 262 262 262 262 263 264 265 266 266 266 267 267 267 268 267 267 267 267 267
271 271 270 270 269 269 269 269 269 269 269 269 269 270 269 269 270 270 269 269 270 270 269 270 269 269 269 270 270 271 271 273 274 274 273 272 272 271 270 269 268 268 268 268 268 267 267 267 267 267 267 267 267 266 266 266 266 265 265 265 265 264 264 264 264 263 263 262 262 262 263 265 265 266 266 266 266 267 267 268 268 267 267 266 266
270 270 270 269 269 268 268 268 268 268 269 269 269 269 269 269 269 269 269 269 269 269 269 269 269 269 269 270 270 271 272 273 273 273 272 271 270 269 269 268 268 268 268 268 267 267 267 267 267 267 266 266 266 266 266 266 266 266 265 265 265 264 264 264 263 263 263 262 261 262 264 265 265 266 266 266 266 267 267 268 267 267 267 266 266
269 269 269 269 268 268 268 267 267 267 268 268 268 268 268 268 269 269 269 269 269 268 269 269 268 269 269 270 271 272 273 273 273 272 271 270 269 269 268 268 268 268 268 267 267 267 267 267 266 266 266 266 266 266 266 266 266 265 265 265 265 265 264 264 263 263 263 262 261 262 264 265 265 265 266 266 266 266 267 267 267 267 267 266 266
Wind_Speed
19 21 22 24 25 26 27 28 29 29 29 30 31 30 31 31 31 30 27 24 22 22 22 21 20 19 20 21 23 24 25 24 23 21 19 17 15 13 12 11 9 8 7 6 6 6 6 6 7 8 8 9 10 11 11 12 12 12 12 13 13 11 12 13 11 22 38 36 33 38 37 37 41 41 42 47 49 46 43 41 42 43 42 42 43
19 20 21 22 23 24 26 27 28 29 30 30 31 31 32 31 30 29 26 24 23 23 22 21 21 22 24 25 26 26 26 25 22 19 17 16 15 13 11 10 9 8 7 7 7 6 6 6 7 8 9 10 10 11 11 12 12 12 13 13 14 13 12 16 16 18 31 41 41 39 35 32 36 40 40 42 47 49 47 44 45 45 44 43 43
18 19 20 22 23 24 25 27 28 29 30 31 31 31 31 30 29 27 25 24 23 22 22 23 24 26 27 28 28 27 26 24 21 18 16 15 14 13 11 10 9 8 7 7 6 6 5 6 7 8 9 9 10 11 11 12 12 13 14 14 15 16 14 15 18 19 25 38 43 39 36 36 36 37 39 40 41 43 46 48 48 49 49 47 45
18 20 21 22 23 24 25 27 28 29 30 31 31 31 30 28 27 25 24 25 24 23 24 26 28 29 30 30 28 27 25 23 21 18 15 14 13 12 11 9 8 7 6 6 6 6 5 6 8 9 9 9 10 11 11 12 14 14 16 16 16 17 18 16 17 20 23 32 41 41 37 37 38 37 38 40 41 41 44 46 47 49 51 49 47
19 20 22 23 24 25 26 27 28 29 30 30 29 29 28 26 25 24 25 25 25 26 28 29 31 31 31 30 28 26 23 21 19 17 15 14 12 11 10 8 7 7 6 6 6 5 6 7 8 9 10 10 11 12 13 13 15 16 16 18 18 18 20 19 19 21 22 26 36 43 42 38 40 39 35 35 40 44 45 48 49 49 51 52 50
19 20 22 23 24 25 26 27 28 29 29 28 27 26 25 24 25 25 25 27 28 30 31 32 32 31 30 28 26 24 22 20 18 17 15 13 11 10 9 8 7 6 6 5 5 5 6 7 8 9 10 11 12 12 14 14 15 17 17 17 19 19 21 22 21 21 23 25 30 38 42 40 38 40 37 33 36 40 43 48 52 52 53 56 56
19 21 22 23 24 25 26 27 27 27 26 25 23 22 23 24 25 26 27 30 33 34 34 33 32 30 29 27 25 23 21 19 17 16 14 12 11 10 9 8 7 6 5 5 5 5 6 7 8 9 9 11 11 12 13 14 15 16 17 17 18 20 21 21 21 21 23 25 27 30 36 37 35 37 38 36 37 38 36 38 46 53 55 55 58
19 21 21 22 23 24 25 24 24 24 23 22 21 22 24 26 27 29 31 34 35 35 35 33 31 29 27 25 23 21 20 18 17 15 14 12 11 10 9 8 6 6 6 5 5 6 6 7 7 8 9 9 10 11 12 13 14 14 15 16 17 19 20 21 22 24 23 23 24 26 31 34 34 34 38 37 36 37 37 36 39 46 49 52 57
22 22 22 22 22 22 22 21 22 22 21 22 23 25 27 28 30 32 34 35 35 34 33 32 30 29 26 24 22 21 19 18 16 14 13 12 10 10 8 7 6 5 6 6 6 6 6 6 7 7 8 8 9 10 11 11 12 13 14 15 17 18 20 21 22 24 24 23 22 23 26 30 29 30 35 36 33 36 42 41 39 43 48 52 57
24 24 24 24 23 23 23 22 22 22 23 25 27 29 30 31 33 35 35 35 34 33 31 30 29 28 26 24 22 21 19 17 16 14 12 11 9 9 8 6 6 5 5 6 6 6 6 6 7 7 8 9 10 10 11 10 11 11 12 13 16 18 20 23 22 22 24 24 23 22 24 28 29 29 32 36 37 39 41 40 40 45 47 43 47
23 24 24 24 24 24 24 24 23 24 25 27 29 31 33 34 35 35 35 34 33 32 31 30 28 26 25 24 22 21 19 17 16 14 12 10 9 7 7 5 5 5 5 6 6 6 6 6 7 7 8 10 11 11 11 12 13 12 11 12 14 16 19 22 24 24 24 25 25 23 22 27 32 33 33 36 39 40 40 41 40 41 38 29 29
22 22 22 22 23 23 24 24 25 26 28 30 31 34 35 36 36 35 35 34 33 32 31 29 28 26 25 24 22 21 19 17 15 13 11 10 8 6 6 5 5 5 6 5 5 5 5 6 7 8 9 10 11 12 12 15 16 14 13 14 14 15 16 18 22 25 25 26 28 26 24 27 32 33 32 35 39 42 42 41 38 37 37 31 26
24 24 24 24 24 25 26 27 28 29 30 32 34 36 37 37 37 36 35 34 33 32 31 29 28 26 25 24 22 20 18 16 14 13 11 10 8 6 5 4 5 5 5 5 5 5 6 6 7 8 9 10 11 12 14 18 19 17 16 17 18 17 16 16 17 20 22 24 27 29 28 29 30 32 34 36 38 40 39 38 38 38 39 38 36
25 25 26 26 27 27 29 30 30 31 33 35 36 38 38 38 37 36 36 35 34 32 31 29 28 26 24 23 22 20 18 16 14 12 11 9 7 6 5 4 5 5 5 5 5 6 7 7 7 8 9 10 11 14 17 19 20 20 20 21 21 19 18 18 18 17 19 21 24 29 30 30 32 35 37 36 35 36 36 37 39 40 41 42 45
26 27 27 28 29 30 31 32 33 34 35 37 38 39 39 39 38 37 36 35 34 33 31 30 28 26 24 23 21 20 17 15 13 12 10 9 7 6 5 4 4 5 5 5 5 6 7 7 8 9 9 10 12 14 16 18 20 21 22 22 21 21 20 20 19 18 19 20 22 27 30 32 34 35 35 35 34 34 36 36 37 38 40 42 44
28 29 29 30 32 33 34 34 35 37 38 39 40 40 40 39 38 37 35 34 33 32 31 29 28 26 24 22 21 19 17 15 13 11 10 8 7 5 5 4 4 5 5 6 6 7 7 7 8 9 9 11 13 13 14 17 19 21 23 22 22 22 22 21 20 18 19 20 22 25 28 30 30 30 31 31 31 32 34 34 35 35 35 33 32
30 32 33 34 34 35 36 37 38 39 40 41 41 40 40 39 38 37 36 34 33 32 30 28 27 26 24 22 20 18 17 14 12 11 9 7 6 5 4 4 5 5 6 7 7 7 7 7 8 8 10 12 13 13 14 16 19 20 23 24 24 25 25 24 22 19 18 20 23 24 25 26 27 27 27 26 26 28 30 31 33 34 31 23 20
33 35 35 35 35 35 36 38 39 40 41 41 41 40 39 39 38 36 36 35 33 32 30 28 27 24 23 21 18 17 16 14 12 10 9 7 5 4 3 3 4 5 6 7 7 6 6 7 8 8 10 11 11 12 14 15 17 20 22 24 26 27 26 25 26 25 23 24 25 25 25 26 26 25 24 23 23 24 25 27 31 32 29 22 20
35 35 33 33 33 34 35 36 37 39 40 39 39 39 38 38 37 35 34 34 33 31 29 28 27 24 21 20 17 16 15 14 12 10 8 6 5 3 3 3 4 5 6 6 6 6 6 6 7 8 9 10 10 12 12 13 15 17 18 21 25 27 26 27 29 31 31 30 30 29 29 28 26 25 25 24 23 23 23 24 28 30 28 27 27
33 31 31 31 32 33 34 35 36 37 38 38 38 38 38 37 36 35 33 33 32 30 28 27 26 24 21 19 17 16 15 13 12 9 7 6 4 3 3 2 3 4 5 6 5 5 5 6 7 8 8 9 10 11 10 10 12 14 15 18 21 25 28 29 29 29 30 31 31 31 31 29 27 27 27 27 28 28 28 27 28 29 29 30 32
27 28 29 30 32 34 35 37 37 38 38 38 38 38 38 37 37 35 34 32 31 30 28 26 25 23 21 19 18 16 14 12 11 9 7 5 3 2 2 1 1 3 4 5 5 5 5 6 7 8 8 9 9 9 9 9 10 11 13 15 18 22 25 27 28 27 28 30 31 30 30 30 30 29 29 31 33 34 35 34 33 32 31 31 33
24 26 27 29 31 33 34 36 37 37 37 38 38 38 36 36 36 35 34 32 31 30 28 26 25 23 21 19 18 16 15 12 11 9 7 5 3 2 2 1 1 2 4 5 5 5 5 6 7 7 7 8 8 8 8 9 9 10 12 14 16 18 20 22 24 26 28 29 29 29 29 30 32 33 34 36 38 39 39 39 37 35 34 32 31
23 25 26 28 29 31 32 33 34 35 35 36 37 37 35 34 34 34 33 33 31 30 28 27 25 24 22 20 18 16 15 13 11 9 7 5 5 4 3 1 1 1 3 4 4 4 5 6 5 5 6 6 6 7 7 8 8 9 11 13 14 16 18 20 22 24 26 27 27 27 28 29 31 33 35 38 40 40 40 39 38 38 36 33 32
23 25 27 28 29 30 32 33 33 34 35 35 36 36 35 34 34 33 33 33 32 31 30 28 26 25 23 21 19 17 15 13 11 9 8 7 7 5 4 2 1 0 2 2 3 4 4 3 3 4 5 5 5 5 6 6 7 8 10 12 14 16 18 20 22 23 24 24 25 26 28 28 30 32 34 36 37 38 38 36 36 36 34 33 33
23 26 27 29 30 31 32 33 34 35 36 37 37 38 37 37 36 35 34 34 34 32 31 30 28 26 25 22 20 18 16 14 12 11 10 9 8 7 5 4 3 2 1 2 2 2 1 1 2 3 3 3 4 4 4 5 6 8 10 12 14 16 18 19 21 21 21 22 24 26 28 29 29 29 31 33 35 36 37 36 35 34 33 34 35
24 26 28 29 30 32 33 33 34 35 36 37 38 39 40 40 38 37 36 35 34 33 32 31 29 27 25 23 21 18 17 15 14 13 12 11 10 9 7 6 5 3 2 2 1 1 0 1 2 2 2 2 2 3 4 6 7 9 11 13 14 16 17 18 19 20 20 22 23 25 28 29 29 28 29 31 32 33 34 35 34 33 33 34 34
25 27 29 30 30 32 34 34 34 35 35 36 37 37 39 40 39 39 38 36 34 32 32 31 30 29 27 24 21 20 18 17 16 15 14 13 12 10 9 7 6 4 3 2 1 1 1 1 2 1 1 2 3 4 5 7 8 10 12 13 14 15 16 17 17 17 19 21 23 25 27 28 28 29 29 29 30 31 31 31 31 31 32 32 30
26 27 29 30 31 32 34 35 36 36 37 38 38 38 39 39 40 40 40 39 37 35 33 33 32 31 28 25 23 22 21 20 19 18 17 15 13 12 10 8 7 5 4 3 2 1 0 1 2 1 2 3 4 6 7 8 10 11 13 14 14 15 16 17 17 18 19 21 22 24 26 27 28 29 29 28 29 29 30 29 28 28 29 28 25
25 26 28 29 31 32 33 35 36 37 38 38 38 38 39 40 40 39 38 39 38 36 35 35 33 31 28 26 25 24 23 22 20 18 17 15 14 12 10 9 7 6 4 3 2 2 2 3 2 0 2 4 5 7 8 9 11 12 13 14 15 17 17 17 18 20 21 21 22 23 25 27 28 28 28 28 28 28 27 27 28 29 28 25 23
24 26 28 29 31 33 33 34 35 36 37 37 36 34 34 35 36 36 35 35 35 34 33 33 32 29 26 25 25 23 21 20 20 19 17 15 14 12 10 9 7 6 5 4 4 4 4 4 2 0 2 4 6 8 9 11 12 13 14 15 16 17 17 17 18 20 21 21 22 23 23 25 26 27 27 28 29 28 26 25 27 28 27 24 22
25 26 28 30 32 33 33 34 35 35 35 36 35 33 31 30 32 32 32 32 32 31 30 30 28 26 24 24 25 23 19 18 20 19 17 16 15 13 11 10 8 7 6 5 5 6 6 5 2 0 2 4 6 7 9 10 12 14 15 15 16 16 17 19 19 20 21 22 22 22 22 23 24 25 25 27 27 27 26 25 26 26 25 23 21
26 27 29 30 31 32 33 33 34 34 34 34 34 33 31 28 27 27 27 28 28 28 27 27 25 24 24 25 25 24 22 21 21 20 19 17 16 14 12 11 10 9 7 7 8 8 7 5 3 1 1 3 5 6 7 9 11 13 14 15 15 16 17 19 19 20 21 21 22 23 23 23 23 23 24 25 25 25 26 27 27 27 25 23 21
26 27 28 29 30 31 32 33 34 35 35 34 34 33 33 31 29 26 24 23 23 23 24 24 24 24 25 26 26 25 24 23 23 21 20 19 17 14 13 13 12 10 9 9 9 9 7 5 4 1 1 2 3 4 6 8 10 11 12 14 15 15 17 18 18 20 20 20 21 22 22 23 23 23 23 23 22 23 24 26 26 26 24 23 22
26 27 27 28 30 32 33 34 34 34 34 34 34 34 34 34 32 30 27 24 21 21 22 23 23 25 27 27 26 25 24 23 23 22 21 19 17 15 15 14 13 11 10 11 11 10 8 6 4 2 1 1 2 3 5 7 9 10 11 12 13 14 16 17 18 19 20 20 20 21 22 22 23 23 23 23 22 21 23 24 25 25 23 21 21
26 26 26 28 30 31 32 33 33 33 33 34 33 33 32 31 30 31 32 30 28 27 25 24 24 25 26 27 26 25 24 23 22 21 21 19 18 18 18 17 15 13 12 12 12 11 9 7 5 4 2 1 1 3 4 6 8 9 10 12 13 13 15 16 17 18 19 19 20 21 22 22 23 23 22 22 21 22 23 23 23 23 22 20 19
26 26 26 27 28 30 31 32 32 33 33 33 32 31 30 30 30 31 31 30 29 28 27 26 25 22 22 24 24 23 22 21 21 20 20 19 19 20 21 20 17 14 14 14 13 12 11 9 7 5 4 3 2 2 3 5 7 8 9 11 12 13 15 16 16 17 18 19 19 21 22 23 23 23 21 20 20 21 22 22 23 22 21 19 17
26 27 28 27 28 29 30 30 31 32 32 31 30 29 29 29 30 30 29 28 28 27 27 28 27 24 22 24 24 22 20 20 19 19 19 19 20 21 21 19 17 16 16 16 15 13 12 10 8 6 6 5 3 2 3 4 6 8 9 10 11 12 13 14 15 16 17 18 19 21 22 23 23 22 21 19 19 20 21 23 24 23 20 18 16
26 27 27 27 27 27 28 29 29 30 30 30 30 30 29 29 29 29 29 29 28 28 28 29 30 30 29 29 27 24 21 20 20 19 20 21 23 23 22 19 18 17 17 17 16 14 12 11 9 8 7 6 4 3 3 4 6 7 8 9 10 11 11 12 14 15 16 17 19 21 22 22 22 22 20 18 19 20 22 23 24 22 20 17 15
25 26 26 26 25 26 27 28 28 28 29 30 31 31 30 29 28 30 30 29 28 28 29 30 33 34 33 32 31 29 26 26 26 26 26 26 26 24 22 21 20 19 18 18 17 15 13 12 10 9 8 7 6 5 4 5 6 7 8 8 9 10 11 12 14 15 15 17 19 20 21 22 21 21 19 17 17 20 22 23 23 21 19 17 14
24 25 25 25 25 26 26 27 28 29 30 31 31 31 31 31 31 32 31 30 30 30 31 33 35 36 35 35 36 36 34 33 33 32 31 30 28 25 24 23 22 20 19 19 18 16 15 13 12 11 10 9 7 7 6 6 6 7 8 8 9 9 9 10 13 14 15 17 18 19 21 21 21 20 19 17 16 19 21 22 21 19 17 15 14
22 23 24 25 26 26 26 27 28 30 31 31 31 32 33 34 33 31 30 30 31 31 32 33 34 35 35 37 38 39 38 36 35 34 33 32 28 26 26 24 22 21 20 20 18 17 16 14 13 12 11 10 9 9 8 7 7 7 7 8 8 9 9 10 11 13 15 16 18 19 20 21 21 20 19 17 17 19 20 20 19 18 17 15 13
21 22 23 24 25 26 27 28 29 29 29 30 31 33 33 33 32 30 31 31 31 30 31 31 31 32 34 36 37 38 37 35 34 33 33 31 28 26 26 24 22 21 21 20 18 17 16 16 15 14 13 12 12 11 10 9 8 8 8 8 9 9 9 9 11 12 14 16 17 19 20 21 21 21 19 16 17 19 20 19 17 17 16 14 12
20 21 22 23 24 26 28 29 28 28 29 30 31 31 31 30 31 31 32 32 32 31 31 32 32 32 33 34 35 36 36 35 34 34 33 31 29 28 27 24 22 21 21 19 18 18 18 17 16 15 14 14 13 13 12 10 10 10 9 9 9 10 10 10 10 12 13 15 17 18 20 20 21 22 20 17 17 18 19 18 16 15 15 13 11
19 20 21 23 24 25 27 27 27 28 29 29 29 30 29 30 30 31 31 32 32 33 33 33 33 33 34 34 34 36 37 37 37 35 33 31 30 29 27 25 23 22 22 21 20 20 20 19 17 16 15 15 15 14 13 12 12 12 11 10 10 11 10 10 10 11 12 14 16 18 19 20 21 21 20 18 17 18 18 17 15 14 13 12 11
18 20 21 22 23 24 26 26 27 28 27 27 28 29 29 30 31 31 31 32 32 32 33 33 33 34 36 36 37 39 39 38 38 37 35 33 31 29 27 25 24 24 23 22 21 21 21 20 18 17 16 16 16 16 15 15 14 14 13 13 12 12 11 11 11 11 11 13 15 17 18 19 20 20 20 19 17 17 17 16 15 14 13 12 11
18 19 21 22 23 24 25 25 26 27 27 27 28 28 28 29 31 31 32 32 32 33 33 33 34 35 37 38 40 40 40 39 39 39 37 34 32 29 27 26 25 25 24 23 22 22 21 20 19 17 17 17 17 18 17 17 16 16 15 15 14 13 12 12 11 11 11 12 14 16 17 18 19 19 19 18 17 17 16 15 14 13 12 12 10
18 19 21 22 23 24 24 24 25 25 26 27 27 28 28 29 29 30 31 32 32 32 33 33 34 36 39 40 42 42 42 41 41 39 37 34 31 29 28 27 26 26 25 24 23 23 22 21 19 18 18 18 19 19 19 18 17 17 17 16 15 14 14 13 13 12 11 11 12 15 16 17 18 18 18 17 16 16 15 15 14 13 12 11 10
18 20 21 22 23 24 24 24 24 25 26 26 27 28 28 28 28 29 30 31 31 32 32 33 34 35 37 39 41 42 42 41 40 37 34 32 30 29 28 28 27 26 25 24 23 23 23 22 20 20 20 21 21 21 20 20 19 19 19 18 16 15 15 15 15 15 12 10 12 14 15 15 16 17 18 18 16 15 14 14 13 12 12 11 10
19 20 21 22 23 24 25 24 24 25 26 26 26 27 28 27 28 29 30 30 31 32 32 32 33 34 35 37 38 38 39 39 37 35 32 31 30 29 28 28 27 26 25 24 24 24 23 22 22 21 22 22 22 22 21 21 20 20 20 18 17 17 17 17 17 16 13 11 12 15 15 14 14 15 16 17 17 15 14 13 12 12 11 11 10
19 21 22 23 24 25 25 25 25 26 25 25 26 27 27 27 28 29 29 29 30 31 32 32 33 34 36 37 37 37 38 38 36 34 32 30 29 29 28 27 27 26 25 25 25 24 23 23 22 22 22 22 22 22 22 22 21 21 20 19 18 18 18 19 19 17 14 13 14 16 14 13 14 14 15 16 16 15 14 12 11 10 10 11 10
20 21 22 23 24 24 24 25 25 25 25 25 26 27 27 27 28 28 28 30 31 31 32 32 33 34 36 38 39 38 38 36 34 32 30 29 29 28 28 28 27 26 25 25 25 24 24 23 23 23 23 23 23 23 23 22 22 21 21 20 19 19 19 20 20 18 15 15 16 16 14 13 13 14 15 15 15 16 15 13 11 10 10 10 10
Wind_Direction
227 226 224 221 221 220 218 216 215 214 214 212 210 207 203 199 197 196 195 196 200 201 199 197 194 188 179 171 165 160 159 156 154 155 153 149 147 146 146 148 147 139 132 124 113 100 84 73 61 52 42 32 24 19 13 8 2 357 356 351 348 355 343 320 291 295 306 312 313 315 321 324 325 328 329 330 331 332 332 331 329 328 327 326 326
221 220 220 218 217 217 215 213 211 210 208 206 203 200 197 195 194 193 193 196 198 198 195 191 186 178 170 164 161 159 158 157 156 157 156 153 151 150 151 150 146 138 131 120 105 91 77 65 54 45 35 23 17 12 3 356 353 346 346 348 342 345 347 330 315 302 306 311 314 316 322 325 324 326 329 329 329 330 329 328 328 327 326 326 325
216 214 213 212 211 210 210 208 206 204 201 198 196 194 193 191 191 192 193 194 193 193 191 184 176 170 165 162 161 161 160 158 158 159 158 156 155 152 151 149 145 137 128 115 99 87 73 54 43 37 27 16 9 4 358 350 348 346 343 345 341 337 341 335 323 312 306 310 314 317 321 324 323 325 327 326 326 326 326 326 327 327 326 326 325
209 207 205 204 203 203 204 201 198 197 194 192 191 190 189 188 188 191 193 191 188 186 183 176 170 167 164 163 163 163 162 160 159 160 159 159 157 154 151 148 143 132 120 105 91 76 57 40 32 24 14 10 5 357 356 350 345 346 342 339 340 334 333 334 326 317 309 307 311 315 319 321 321 323 325 325 325 325 324 324 325 325 324 324 323
203 201 199 198 197 197 197 195 192 191 189 188 187 186 186 186 188 191 191 188 182 177 174 170 168 167 166 166 165 164 163 162 161 161 160 160 160 157 152 146 137 125 111 96 80 59 41 31 24 17 7 4 5 355 352 351 343 341 340 337 337 334 331 332 329 322 312 305 308 314 317 318 319 320 324 325 324 325 325 324 324 324 322 322 321
199 198 196 195 194 192 191 189 187 186 184 183 182 183 186 188 190 190 188 183 175 171 169 167 168 168 167 167 166 164 163 163 164 164 162 162 161 157 150 144 137 124 109 92 74 50 35 28 18 14 7 1 2 355 347 345 340 338 339 337 335 333 332 332 331 325 316 308 307 310 313 316 318 319 322 326 324 323 324 324 324 324 323 322 321
199 196 195 193 191 189 187 184 183 183 182 183 185 189 192 193 190 187 184 178 171 168 167 167 168 169 168 167 166 165 164 165 166 165 164 164 161 157 153 146 139 126 110 90 71 50 32 30 21 12 9 2 356 351 344 341 338 337 338 336 335 335 333 331 329 324 318 312 309 308 310 313 315 316 320 325 324 322 323 323 321 322 323 321 320
203 197 194 192 189 187 186 185 185 187 188 191 196 197 194 191 188 182 177 173 170 168 168 167 168 168 167 167 166 166 167 166 167 167 166 164 161 158 155 148 141 128 112 91 71 57 39 32 26 12 6 1 352 348 345 340 336 337 339 338 338 336 331 328 326 322 317 312 309 308 309 310 314 317 321 326 326 324 325 322 316 317 320 319 317
204 201 198 197 195 192 192 193 192 193 197 198 198 195 190 186 181 176 172 171 169 168 169 169 169 168 166 167 166 167 169 168 167 168 166 164 164 160 156 149 140 123 104 89 73 64 50 32 24 13 2 355 350 346 344 341 338 338 341 341 338 334 328 324 322 319 316 312 309 311 311 310 314 320 322 324 324 321 322 321 317 316 318 316 315
203 202 201 203 203 202 202 201 199 199 199 197 192 189 185 180 175 172 170 170 169 168 169 171 171 170 167 167 167 167 169 168 167 167 166 166 168 164 160 150 133 113 93 84 73 61 51 34 19 9 358 352 350 348 345 346 348 344 341 338 334 330 325 320 318 316 313 311 310 314 315 310 312 318 318 318 319 318 319 321 319 318 317 315 314
205 202 200 200 200 200 199 198 199 199 196 192 188 184 180 175 172 171 170 170 170 170 172 172 171 171 170 169 170 169 169 169 167 167 167 168 172 171 163 148 126 109 90 77 71 58 44 31 15 4 359 354 351 353 352 354 358 351 339 332 327 324 321 317 315 314 312 309 308 311 312 308 310 315 315 316 318 319 319 318 316 315 315 315 314
208 205 202 201 199 197 198 197 196 195 192 188 185 180 176 173 172 171 171 171 172 172 174 174 172 172 172 171 171 169 168 169 168 167 168 168 172 175 162 139 116 98 81 67 61 55 40 27 17 4 359 357 353 353 356 0 1 351 334 327 323 318 316 312 311 311 310 310 308 308 309 307 308 311 314 317 318 317 316 315 315 316 315 312 308
207 207 206 205 204 202 201 197 194 192 189 185 181 177 175 174 173 173 173 173 174 174 175 174 172 172 173 172 171 169 168 169 169 168 170 171 171 167 153 129 106 85 74 63 49 41 34 26 20 9 2 1 356 355 360 2 356 342 330 326 323 321 316 310 306 304 303 304 303 302 304 306 306 308 312 314 314 313 314 315 317 317 312 309 306
203 205 204 204 204 202 199 195 192 190 186 183 179 177 176 176 175 175 175 174 175 175 174 174 173 173 174 173 171 168 167 170 172 171 170 172 169 160 146 123 101 82 71 64 47 33 28 23 18 14 9 5 1 2 4 358 345 333 328 326 326 327 322 316 313 306 302 300 297 298 303 305 305 306 310 314 314 313 315 315 315 313 309 307 306
202 204 203 203 202 199 197 194 191 189 185 182 180 178 178 177 176 177 177 177 177 177 175 175 174 173 174 174 172 168 168 171 174 174 173 171 168 157 142 120 99 87 80 69 50 38 31 22 19 17 13 9 9 8 1 347 333 327 327 328 329 327 324 324 322 312 304 302 298 299 304 306 306 308 312 316 315 313 313 312 311 311 309 307 305
203 204 204 204 203 200 198 194 191 188 184 182 181 180 179 178 177 177 177 177 177 177 176 176 175 174 173 175 174 169 169 173 176 177 176 171 166 155 139 120 104 95 86 72 54 43 34 24 23 20 16 18 16 6 351 337 329 328 328 329 329 326 326 332 332 317 304 303 303 303 304 306 308 311 314 315 314 314 314 314 315 315 311 305 305
205 206 207 206 204 202 198 194 191 187 185 183 182 181 180 179 179 179 178 177 176 176 176 176 176 177 175 175 177 173 170 173 179 181 178 172 165 155 140 122 110 97 84 72 56 45 36 28 27 23 22 25 15 356 345 336 331 331 330 329 329 328 331 337 336 323 309 306 308 308 310 312 314 315 316 317 317 320 321 319 318 318 314 309 309
209 209 208 207 204 202 199 195 192 188 186 185 183 181 181 180 180 180 180 178 176 176 177 175 175 177 177 177 179 177 173 173 180 183 179 173 167 155 142 124 111 97 82 72 59 49 41 32 29 28 25 23 7 348 343 338 333 332 331 329 329 331 334 335 330 323 319 319 321 322 324 326 323 320 321 320 322 327 325 320 318 318 314 310 307
212 210 208 207 204 202 199 195 193 189 187 186 184 183 182 181 181 181 181 180 178 176 177 176 174 175 177 177 177 178 177 174 178 186 182 174 173 163 149 132 113 96 80 74 64 55 50 38 31 31 24 14 355 341 339 339 334 330 330 331 331 330 330 327 324 325 328 332 334 334 334 335 332 329 328 327 330 335 330 324 321 317 311 308 308
213 210 209 207 204 202 199 196 195 192 189 188 186 185 184 183 182 181 180 180 178 176 176 176 175 174 175 177 177 178 181 177 177 186 191 183 182 173 163 148 114 88 74 75 72 62 57 44 34 31 19 0 343 333 334 337 333 330 337 340 332 324 322 322 325 331 334 334 336 337 336 337 335 334 335 336 339 341 338 334 330 323 316 311 309
212 210 209 207 204 203 201 199 197 194 192 190 188 186 186 185 184 182 180 179 177 175 175 175 176 174 174 177 178 178 181 182 180 185 192 196 196 191 200 207 91 77 69 70 70 65 60 45 37 31 11 345 332 330 333 335 333 337 343 336 323 318 320 324 331 337 337 336 337 337 336 337 338 339 341 342 344 344 342 340 337 332 325 319 313
214 211 208 206 205 203 200 199 198 195 194 191 188 187 186 185 185 182 180 179 177 176 176 176 177 175 174 176 180 180 182 185 186 185 187 197 218 228 235 266 20 57 68 70 66 64 57 46 38 22 350 332 330 333 336 337 338 339 334 325 321 323 326 331 337 341 341 340 339 338 339 340 341 342 344 345 345 345 343 341 340 337 333 328 323
213 209 207 205 204 202 200 199 197 196 194 192 189 187 185 184 184 183 182 180 179 177 177 178 178 176 175 176 179 182 184 186 188 187 188 201 223 233 234 252 318 31 64 70 70 65 56 44 27 351 330 329 335 337 340 342 339 335 332 331 333 336 338 342 346 345 343 341 339 338 341 343 342 343 344 343 343 343 342 342 340 339 337 335 332
209 206 206 204 202 201 200 199 198 197 195 193 191 188 186 185 184 185 185 183 182 181 180 181 181 179 178 178 180 183 186 188 190 193 199 208 216 221 225 231 242 335 67 71 72 70 59 27 342 330 330 335 338 338 342 346 342 343 347 347 347 350 352 353 352 349 344 340 339 339 341 342 342 341 340 340 340 340 340 340 340 339 338 336 336
206 205 204 203 202 201 200 199 200 199 197 195 193 190 188 187 185 185 186 186 186 185 184 184 185 185 183 182 184 187 190 192 195 198 203 208 213 215 217 215 214 205 139 109 89 77 60 337 324 332 332 335 343 346 353 1 2 1 2 1 1 2 2 359 355 350 342 339 340 339 340 340 340 337 337 338 339 340 341 340 340 341 340 339 341
205 203 203 203 202 200 199 199 199 199 198 197 196 195 192 190 188 187 187 188 189 189 188 187 188 188 187 187 189 192 193 194 197 200 203 207 212 213 211 208 208 203 174 149 134 113 54 341 328 321 328 354 11 7 7 16 18 13 11 12 11 10 7 2 356 348 340 339 341 340 338 338 337 336 338 340 340 341 341 339 338 341 342 343 344
205 203 202 202 201 200 199 198 197 197 198 197 196 196 195 194 192 190 189 190 191 191 190 189 189 189 191 192 193 195 196 196 198 202 206 208 209 210 207 206 205 197 183 179 168 125 69 336 304 308 3 41 46 35 24 22 21 18 17 19 17 13 11 6 358 350 345 344 344 341 339 338 336 336 340 340 340 341 342 340 339 341 343 344 345
207 205 203 202 201 200 200 199 198 197 197 197 197 197 196 196 195 195 195 195 195 194 193 193 193 194 195 196 195 195 197 202 205 207 208 207 209 210 206 204 204 200 196 195 174 132 161 260 272 313 41 50 42 36 31 27 23 18 16 19 20 16 13 8 2 358 355 352 348 344 340 337 336 337 338 338 339 341 343 343 343 342 344 348 349
207 205 204 202 202 201 200 200 200 198 197 198 199 199 199 199 199 200 201 201 201 201 200 200 200 200 203 204 201 200 204 210 210 209 209 209 210 213 211 208 206 204 202 198 182 182 211 225 232 284 34 35 30 26 25 24 24 20 16 17 18 15 11 6 2 1 1 358 352 346 340 335 334 335 335 335 338 342 345 347 347 347 349 352 352
205 205 205 204 203 202 201 201 201 201 199 198 198 199 201 202 202 202 203 203 204 205 205 205 205 206 208 211 212 215 222 220 210 205 208 211 212 213 213 212 209 207 206 202 195 202 214 217 216 307 24 26 24 21 18 15 14 14 16 17 15 10 6 5 4 2 2 0 354 346 339 333 330 332 333 334 337 342 346 349 349 350 352 353 353
205 206 207 207 206 204 203 202 202 202 201 200 198 197 198 202 205 206 206 206 206 208 208 208 209 212 216 219 219 220 220 214 207 207 210 211 211 211 211 211 210 209 211 212 210 210 212 217 227 295 29 32 26 19 15 10 5 5 9 12 11 6 3 5 6 4 3 0 354 346 339 333 328 329 332 334 337 341 346 349 352 352 352 353 353
211 210 211 210 209 207 205 204 203 202 202 201 200 198 196 196 201 206 209 210 210 210 211 212 214 217 221 223 220 215 209 206 208 211 210 210 212 211 208 209 209 208 208 213 219 220 219 223 233 253 25 33 28 16 9 6 1 360 1 2 2 3 5 7 7 5 3 358 351 344 339 334 329 329 332 335 338 341 345 349 352 353 351 351 352
220 219 216 213 210 209 208 206 205 204 203 201 200 199 197 195 194 196 201 207 211 214 215 216 217 217 215 214 214 215 213 210 210 211 209 209 210 207 204 205 208 211 212 215 220 225 226 229 231 238 359 15 18 12 4 359 356 357 356 352 353 0 7 8 7 5 2 356 349 344 340 336 333 332 335 337 340 342 345 349 351 352 351 350 350
227 226 223 219 215 212 211 209 208 207 206 205 203 202 201 200 196 191 188 190 197 206 211 213 213 211 209 208 209 212 212 210 208 207 205 205 205 202 200 201 204 209 215 218 223 229 231 231 231 234 277 338 353 357 356 351 350 352 351 348 352 0 6 9 8 4 358 353 349 345 341 339 338 338 337 338 340 343 347 350 351 352 351 348 347
230 229 229 226 222 218 216 214 212 211 210 209 208 206 205 203 200 195 191 190 192 196 200 204 206 207 208 208 208 208 208 206 204 203 203 203 202 199 199 201 204 209 215 220 226 231 234 234 235 236 240 247 295 329 341 343 343 344 343 344 351 0 5 6 4 359 353 350 347 345 343 343 344 343 341 339 339 343 347 350 350 351 351 349 347
232 231 230 230 227 224 222 219 217 216 215 213 212 211 209 206 203 202 200 198 198 197 196 197 198 199 205 208 206 204 202 201 201 203 203 202 202 203 206 210 211 212 216 222 226 229 232 234 234 233 232 236 257 299 321 328 332 335 337 340 349 359 3 360 354 350 348 348 346 346 348 348 347 347 345 341 339 342 346 348 347 349 353 354 354
236 234 233 232 231 229 227 224 222 221 220 219 216 215 213 211 208 206 203 203 203 200 198 195 192 191 198 205 202 197 196 197 199 202 202 202 204 209 214 218 218 215 217 221 224 226 229 231 229 229 231 236 246 268 297 312 317 323 329 337 348 358 358 351 344 342 344 345 346 349 350 350 349 349 345 340 338 342 346 346 345 348 352 355 358
241 239 237 236 235 232 230 228 226 225 225 223 220 218 217 215 212 209 208 207 206 203 199 196 193 193 198 201 198 192 189 191 194 197 200 204 207 210 214 217 218 218 221 224 225 225 227 228 229 229 232 237 243 250 271 293 301 308 321 332 343 352 352 345 341 342 343 344 348 351 351 349 349 348 344 338 336 340 343 345 345 346 349 353 357
245 243 241 240 239 236 234 232 229 227 227 226 223 221 219 217 215 213 211 210 208 206 203 200 200 201 202 200 194 187 185 190 194 197 201 206 209 210 212 215 216 217 221 224 226 226 226 227 229 232 234 239 246 249 259 277 288 299 313 325 335 344 347 343 339 339 341 345 349 352 352 350 347 345 342 338 335 337 341 345 346 344 343 346 349
251 248 245 242 240 240 238 235 232 230 228 227 224 222 220 220 219 217 214 212 210 209 208 206 207 207 206 203 198 192 191 195 199 201 205 209 209 209 211 215 216 217 221 224 226 226 226 227 229 233 236 240 247 251 256 267 278 290 303 314 324 333 337 336 334 335 338 343 348 351 352 351 347 343 340 337 335 335 339 344 346 343 339 336 337
257 253 249 245 242 241 239 237 235 233 231 229 226 224 223 223 223 222 220 218 216 214 213 213 213 212 210 209 206 201 200 203 205 207 211 213 212 212 215 217 217 219 222 225 226 227 227 228 230 234 238 243 248 251 254 261 269 280 291 300 308 316 323 327 329 331 336 342 347 350 352 352 347 341 337 334 332 334 339 344 346 343 338 333 329
260 256 253 249 244 240 238 237 237 235 233 231 229 227 226 226 226 225 224 223 221 219 218 218 217 215 214 213 210 206 207 209 212 213 215 216 216 218 220 219 219 221 223 225 226 228 230 231 232 235 239 245 250 252 254 258 263 271 280 288 294 301 310 317 321 325 334 342 346 348 350 351 347 342 339 335 330 331 336 343 345 341 338 333 325
263 260 257 253 247 243 241 240 238 236 234 233 232 232 231 229 228 228 227 226 224 222 220 219 217 215 214 213 210 208 209 213 216 218 219 219 219 221 222 222 222 224 224 224 226 229 231 233 235 237 240 245 250 253 256 258 263 268 274 281 287 292 300 306 309 315 327 338 343 344 346 348 346 343 340 336 330 327 332 338 341 339 337 330 321
265 262 258 255 251 248 245 243 240 239 238 237 236 235 234 232 231 231 230 228 226 224 221 220 217 215 212 209 206 206 210 214 217 219 220 220 220 222 223 223 224 225 225 226 226 228 232 235 236 237 241 245 249 254 257 259 263 269 273 276 281 286 292 294 295 303 317 329 336 339 341 343 342 341 340 335 328 325 327 332 334 335 334 327 318
267 263 259 256 252 250 248 245 243 242 241 240 239 238 236 233 232 231 230 229 228 225 223 221 218 215 211 207 204 206 210 214 216 218 220 221 221 222 223 223 224 226 228 228 228 229 233 236 237 239 243 247 250 254 258 260 263 267 270 273 278 284 288 286 286 294 308 317 324 330 334 335 336 338 338 335 327 322 323 326 327 327 327 323 316
269 265 261 257 254 252 250 248 246 244 242 241 240 239 238 235 234 232 231 230 228 226 224 221 218 216 213 209 207 209 211 213 216 218 220 220 221 222 223 224 225 227 230 230 231 233 235 237 239 242 246 250 253 255 257 259 262 264 265 268 273 280 284 282 280 284 293 303 313 321 326 327 329 332 333 331 326 322 322 323 322 321 319 317 312
272 267 262 259 257 255 253 251 249 246 245 243 242 241 241 239 237 235 234 233 231 229 226 223 220 218 215 212 211 212 213 215 218 219 220 220 220 221 222 223 224 227 230 232 233 236 238 240 242 245 249 252 256 258 259 261 262 261 262 264 268 275 278 275 272 273 278 289 304 312 315 318 321 325 328 327 323 320 320 320 319 316 313 308 302
274 269 265 262 259 256 255 253 251 248 247 246 245 245 244 243 240 239 237 235 233 232 230 227 224 221 218 216 215 215 215 217 219 220 219 219 220 221 222 223 224 227 230 233 235 238 241 243 246 249 252 254 257 259 261 263 263 262 262 263 266 269 269 267 267 269 274 285 299 302 303 309 314 317 321 323 320 317 316 316 315 313 309 301 292
276 271 267 264 260 257 256 254 253 251 250 249 248 248 247 245 244 242 240 238 236 234 233 231 229 226 222 220 218 217 216 217 219 219 219 219 220 221 221 223 224 227 230 234 237 241 244 247 250 252 254 256 258 260 262 264 263 263 264 265 265 266 264 263 265 268 272 281 289 289 291 298 306 310 314 316 316 313 311 310 309 308 304 297 288
277 273 269 266 263 262 260 258 256 255 254 252 251 250 249 248 246 245 242 240 239 237 235 234 232 230 227 223 220 219 218 219 220 220 220 221 222 222 222 222 225 228 232 237 241 244 247 249 252 254 256 257 259 261 263 264 264 265 265 266 265 264 263 262 263 265 266 271 277 279 281 289 298 302 305 309 311 309 307 305 304 302 298 294 289
278 274 271 269 267 265 263 261 259 258 257 255 253 253 251 250 249 247 245 242 240 239 237 236 235 233 230 226 223 221 221 222 222 223 223 224 224 223 223 224 226 230 235 240 244 247 249 251 252 254 256 258 260 262 263 264 265 266 267 267 266 264 262 262 263 263 263 264 269 272 276 282 290 296 300 303 305 306 304 302 299 296 294 291 289